Silver Bay, MN

1:12 PM CDT on June 25, 2017 (GMT -0500)
Silver Bay Municipal

Weather History for KBFW - September, 2013

Change the Weather History Date:

Monday, September 30, 2013

  Actual Average Record
Temperature  
Mean Temperature 56 °F -  
Max Temperature 69 °F 54 °F 71 °F (2000)
Min Temperature 44 °F 33 °F 26 °F (2011)
Degree Days  
Heating Degree Days 8    
Growing Degree Days 6 (Base 50)    
Moisture  
Dew Point 45 °F    
Average Humidity 69    
Maximum Humidity 93    
Minimum Humidity 40    
Precipitation  
Precipitation 0.00 in - - ()
Sea Level Pressure  
Sea Level Pressure 29.64 in    
Wind  
Wind Speed 4 mph (South)    
Max Wind Speed 20 mph    
Max Gust Speed 26 mph    
Visibility 10 miles    
Events      
Averages and records for this station are not official NWS values.
T = Trace of Precipitation, MM = Missing Value Source: NWS Daily Summary

Daily Weather History Graph

Daily Weather History Graph

Search for Another Location

Airport or City:

Trip Planner

Search our weather history database for the weather conditions in past years. The results will help you decide how hot, cold, wet, or windy it might be!

Date:

Astronomy

Sep. 30, 2013 Rise Set
Actual Time 7:03 AM CDT 6:46 PM CDT
Civil Twilight 6:33 AM CDT 7:17 PM CDT
Nautical Twilight 5:57 AM CDT 7:52 PM CDT
Astronomical Twilight 5:21 AM CDT 8:28 PM CDT
Moon 2:25 AM CDT (9/30) 4:30 PM CDT (9/30)
Length of Visible Light 12h 44m
Length of Day
11h 43m
Waning Crescent, 19% of the Moon is Illuminated
Sep 30
Waning Crescent
Oct 4
New
Oct 11
First Quarter
Oct 18
Full
Oct 26
Last Quarter

Hourly Weather History & Observations

Time (CDT) Temp. Dew Point Humidity Pressure Visibility Wind Dir Wind Speed Gust Speed Precip Events Conditions
12:13 AM 44.6 °F 41.0 °F 87% 29.78 in 10.0 mi Calm Calm - N/A   Clear
12:33 AM 46.4 °F 42.8 °F 87% 29.77 in 10.0 mi Calm Calm - N/A   Clear
12:53 AM 46.4 °F 42.8 °F 87% 29.76 in 10.0 mi Calm Calm - N/A   Clear
1:13 AM 46.4 °F 42.8 °F 87% 29.76 in 10.0 mi Calm Calm - N/A   Clear
1:33 AM 46.4 °F 42.8 °F 87% 29.76 in 10.0 mi Calm Calm - N/A   Clear
1:53 AM 44.6 °F 41.0 °F 87% 29.75 in 10.0 mi Calm Calm - N/A   Clear
2:13 AM 44.6 °F 42.8 °F 93% 29.74 in 10.0 mi Calm Calm - N/A   Clear
2:33 AM 46.4 °F 42.8 °F 87% 29.74 in 10.0 mi Calm Calm - N/A   Clear
2:53 AM 44.6 °F 41.0 °F 87% 29.73 in 10.0 mi Calm Calm - N/A   Clear
3:13 AM 46.4 °F 42.8 °F 87% 29.72 in 10.0 mi Calm Calm - N/A   Clear
3:33 AM 46.4 °F 42.8 °F 87% 29.71 in 10.0 mi Calm Calm - N/A   Clear
3:53 AM 46.4 °F 44.6 °F 93% 29.71 in 10.0 mi Calm Calm - N/A   Clear
4:13 AM 48.2 °F 44.6 °F 87% 29.71 in 10.0 mi Calm Calm - N/A   Clear
4:33 AM 48.2 °F 44.6 °F 87% 29.70 in 10.0 mi Calm Calm - N/A   Clear
4:53 AM 48.2 °F 44.6 °F 87% 29.69 in 10.0 mi Calm Calm - N/A   Clear
5:13 AM 48.2 °F 44.6 °F 87% 29.69 in 10.0 mi Calm Calm - N/A   Clear
5:33 AM 48.2 °F 44.6 °F 87% 29.68 in 10.0 mi Calm Calm - N/A   Scattered Clouds
5:53 AM 50.0 °F 44.6 °F 82% 29.67 in 10.0 mi Calm Calm - N/A   Scattered Clouds
6:13 AM 50.0 °F 44.6 °F 82% 29.67 in 10.0 mi Calm Calm - N/A   Scattered Clouds
6:33 AM 48.2 °F 44.6 °F 87% 29.67 in 10.0 mi Calm Calm - N/A   Clear
6:53 AM 48.2 °F 44.6 °F 87% 29.67 in 10.0 mi Calm Calm - N/A   Clear
7:13 AM 48.2 °F 42.8 °F 82% 29.67 in 10.0 mi South 3.5 mph - N/A   Clear
7:33 AM 48.2 °F 42.8 °F 82% 29.67 in 10.0 mi South 3.5 mph - N/A   Clear
7:53 AM 53.6 °F 44.6 °F 72% 29.66 in 10.0 mi South 5.8 mph - N/A   Clear
8:13 AM 55.4 °F 44.6 °F 67% 29.65 in 10.0 mi South 4.6 mph - N/A   Clear
8:33 AM 55.4 °F 44.6 °F 67% 29.64 in 10.0 mi South 5.8 mph - N/A   Clear
8:53 AM 57.2 °F 44.6 °F 63% 29.64 in 10.0 mi South 8.1 mph - N/A   Clear
9:13 AM 57.2 °F 42.8 °F 59% 29.64 in 10.0 mi South 12.7 mph 17.3 mph N/A   Clear
9:33 AM 59.0 °F 42.8 °F 55% 29.63 in 10.0 mi South 12.7 mph 18.4 mph N/A   Clear
9:53 AM 59.0 °F 42.8 °F 55% 29.63 in 10.0 mi South 10.4 mph 19.6 mph N/A   Clear
10:13 AM 60.8 °F 42.8 °F 52% 29.63 in 10.0 mi South 16.1 mph - N/A   Clear
10:33 AM 60.8 °F 42.8 °F 52% 29.62 in 10.0 mi South 15.0 mph - N/A   Clear
10:53 AM 60.8 °F 42.8 °F 52% 29.62 in 10.0 mi South 13.8 mph - N/A   Clear
11:14 AM 60.8 °F 42.8 °F 52% 29.62 in 10.0 mi South 15.0 mph - N/A   Clear
11:33 AM 60.8 °F 42.8 °F 52% 29.62 in 10.0 mi South 11.5 mph - N/A   Clear
11:53 AM 62.6 °F 44.6 °F 52% 29.62 in 10.0 mi South 10.4 mph 17.3 mph N/A   Clear
12:13 PM 62.6 °F 44.6 °F 52% 29.61 in 10.0 mi SSW 12.7 mph - N/A   Clear
12:33 PM 62.6 °F 42.8 °F 48% 29.61 in 10.0 mi South 13.8 mph 23.0 mph N/A   Clear
12:53 PM 64.4 °F 42.8 °F 45% 29.60 in 10.0 mi South 13.8 mph 24.2 mph N/A   Clear
1:13 PM 64.4 °F 42.8 °F 45% 29.60 in 10.0 mi South 19.6 mph 26.5 mph N/A   Clear
1:33 PM 66.2 °F 42.8 °F 43% 29.60 in 10.0 mi South 18.4 mph 25.3 mph N/A   Clear
1:53 PM 66.2 °F 44.6 °F 46% 29.59 in 10.0 mi South 19.6 mph 25.3 mph N/A   Clear
2:13 PM 66.2 °F 44.6 °F 46% 29.60 in 10.0 mi South 16.1 mph 21.9 mph N/A   Clear
2:33 PM 66.2 °F 44.6 °F 46% 29.59 in 10.0 mi South 16.1 mph 23.0 mph N/A   Clear
2:53 PM 66.2 °F 44.6 °F 46% 29.59 in 10.0 mi South 17.3 mph 26.5 mph N/A   Clear
3:13 PM 68.0 °F 44.6 °F 43% 29.59 in 10.0 mi South 13.8 mph 23.0 mph N/A   Clear
3:33 PM 68.0 °F 44.6 °F 43% 29.59 in 10.0 mi South 19.6 mph 24.2 mph N/A   Clear
3:53 PM 69.8 °F 44.6 °F 40% 29.59 in 10.0 mi SSW 16.1 mph 21.9 mph N/A   Clear
4:13 PM 69.8 °F 44.6 °F 40% 29.58 in 10.0 mi South 15.0 mph - N/A   Clear
4:33 PM 68.0 °F 44.6 °F 43% 29.59 in 10.0 mi South 15.0 mph 23.0 mph N/A   Clear
4:53 PM 68.0 °F 44.6 °F 43% 29.59 in 10.0 mi South 10.4 mph 20.7 mph N/A   Clear
5:13 PM 68.0 °F 44.6 °F 43% 29.59 in 10.0 mi South 10.4 mph - N/A   Clear
5:33 PM 68.0 °F 46.4 °F 46% 29.59 in 10.0 mi SSW 6.9 mph - N/A   Clear
5:53 PM 66.2 °F 46.4 °F 49% 29.60 in 10.0 mi SW 6.9 mph - N/A   Clear
6:13 PM 64.4 °F 46.4 °F 52% 29.60 in 10.0 mi SSW 4.6 mph - N/A   Clear
6:33 PM 64.4 °F 46.4 °F 52% 29.60 in 10.0 mi Calm Calm - N/A   Clear
6:53 PM 60.8 °F 48.2 °F 63% 29.60 in 10.0 mi Calm Calm - N/A   Clear
7:13 PM 59.0 °F 48.2 °F 67% 29.61 in 10.0 mi Calm Calm - N/A   Clear
7:33 PM 57.2 °F 48.2 °F 72% 29.61 in 10.0 mi Calm Calm - N/A   Clear
7:53 PM 53.6 °F 48.2 °F 82% 29.62 in 10.0 mi Calm Calm - N/A   Clear
8:13 PM 53.6 °F 48.2 °F 82% 29.62 in 10.0 mi Calm Calm - N/A   Clear
8:33 PM 51.8 °F 48.2 °F 88% 29.63 in 10.0 mi Calm Calm - N/A   Clear
8:53 PM 51.8 °F 48.2 °F 88% 29.63 in 10.0 mi Calm Calm - N/A   Clear
9:13 PM 51.8 °F 46.4 °F 82% 29.63 in 10.0 mi Calm Calm - N/A   Clear
9:33 PM 51.8 °F 46.4 °F 82% 29.63 in 10.0 mi Calm Calm - N/A   Clear
9:53 PM 51.8 °F 46.4 °F 82% 29.63 in 10.0 mi Calm Calm - N/A   Clear
10:13 PM 50.0 °F 46.4 °F 87% 29.63 in 10.0 mi Calm Calm - N/A   Clear
10:33 PM 50.0 °F 46.4 °F 87% 29.62 in 10.0 mi Calm Calm - N/A   Clear
10:53 PM 50.0 °F 46.4 °F 87% 29.61 in 10.0 mi Calm Calm - N/A   Clear
11:13 PM 48.2 °F 46.4 °F 93% 29.61 in 10.0 mi Calm Calm - N/A   Clear
11:33 PM 48.2 °F 44.6 °F 87% 29.60 in 10.0 mi Calm Calm - N/A   Clear
11:53 PM 50.0 °F 46.4 °F 87% 29.60 in 10.0 mi Calm Calm - N/A   Clear